User: anonymous   Login
Location: Unspecified
(0.0000°N, 0.0000°E)
Time: 21:49:02
(UTC+00:00)
Language:

PAYLOAD E - Orbit

View from above orbital plane
View from above orbital plane
View from above satellite
View from above satellite

Ground track
Ground track

The orbit data is extracted from the following two-line orbital elements,

1 27059U 01058E   17117.67551038 +.00000004 +00000-0 -37160-4 0  9995
2 27059 082.5447 189.7743 0000991 167.4476 192.6640 12.61477423705982
Epoch (UTC): 27 April 2017 16:12:44
Eccentricity: 0.0000991
inclination: 82.5447°
perigee height: 1416 km
apogee height: 1417 km
right ascension of ascending node: 189.7743°
argument of perigee: 167.4476°
revolutions per day: 12.61477423
mean anomaly at epoch: 192.6640°
orbit number at epoch: 70598

The dashed part of the orbit path shows where the satellite is in the earth's shadow,  

DLR